TimeCDT,TemperatureF,Dew PointF,Humidity,Sea Level PressureIn,VisibilityMPH,Wind Direction,Wind SpeedMPH,Gust SpeedMPH,PrecipitationIn,Events,Conditions,WindDirDegrees,DateUTC
12:12 AM,12.2,8.6,85,30.22,10.0,NNW,10.4,-,N/A,,Clear,340,2013-03-17 05:12:00
12:33 AM,12.2,6.8,79,30.22,10.0,NNW,13.8,-,N/A,,Clear,340,2013-03-17 05:33:00
12:52 AM,10.4,6.8,85,30.22,10.0,NNW,11.5,-,N/A,,Clear,340,2013-03-17 05:52:00
1:12 AM,12.2,8.6,85,30.22,10.0,North,8.1,-,N/A,,Clear,350,2013-03-17 06:12:00
1:33 AM,10.4,6.8,85,30.21,10.0,NNW,8.1,-,N/A,,Clear,340,2013-03-17 06:33:00
1:52 AM,10.4,6.8,85,30.20,10.0,North,10.4,-,N/A,,Clear,360,2013-03-17 06:52:00
2:12 AM,10.4,6.8,85,30.21,10.0,North,10.4,-,N/A,,Clear,10,2013-03-17 07:12:00
2:33 AM,10.4,6.8,85,30.20,10.0,North,10.4,-,N/A,,Clear,10,2013-03-17 07:33:00
2:52 AM,10.4,5.0,79,30.19,10.0,North,11.5,-,N/A,,Clear,360,2013-03-17 07:52:00
3:12 AM,10.4,5.0,79,30.18,10.0,North,10.4,-,N/A,,Clear,10,2013-03-17 08:12:00
3:33 AM,10.4,5.0,79,30.17,10.0,NNE,10.4,-,N/A,,Clear,30,2013-03-17 08:33:00
3:52 AM,8.6,5.0,85,30.16,10.0,NNE,9.2,-,N/A,,Clear,30,2013-03-17 08:52:00
4:12 AM,8.6,5.0,85,30.16,10.0,NNE,9.2,-,N/A,,Clear,30,2013-03-17 09:12:00
4:33 AM,8.6,3.2,79,30.15,10.0,NNE,10.4,-,N/A,,Clear,30,2013-03-17 09:33:00
4:52 AM,8.6,3.2,79,30.15,10.0,NNE,10.4,-,N/A,,Clear,30,2013-03-17 09:52:00
5:12 AM,8.6,3.2,79,30.15,10.0,NE,9.2,-,N/A,,Clear,50,2013-03-17 10:12:00
5:33 AM,8.6,3.2,79,30.14,10.0,NE,9.2,-,N/A,,Mostly Cloudy,40,2013-03-17 10:33:00
5:52 AM,8.6,3.2,79,30.14,10.0,NE,10.4,-,N/A,,Overcast,40,2013-03-17 10:52:00
6:12 AM,8.6,3.2,79,30.14,10.0,ENE,11.5,-,N/A,,Mostly Cloudy,60,2013-03-17 11:12:00
6:52 AM,8.6,5.0,85,30.13,10.0,ENE,10.4,-,N/A,,Clear,70,2013-03-17 11:52:00
7:12 AM,8.6,5.0,85,30.12,10.0,ENE,10.4,-,N/A,,Clear,70,2013-03-17 12:12:00
7:32 AM,10.4,5.0,79,30.12,10.0,East,11.5,-,N/A,,Clear,80,2013-03-17 12:32:00
7:52 AM,10.4,6.8,85,30.12,10.0,East,11.5,-,N/A,,Mostly Cloudy,90,2013-03-17 12:52:00
8:13 AM,10.4,6.8,85,30.11,10.0,East,11.5,-,N/A,,Overcast,90,2013-03-17 13:13:00
8:32 AM,12.2,6.8,79,30.11,10.0,East,10.4,-,N/A,,Mostly Cloudy,100,2013-03-17 13:32:00
8:52 AM,12.2,6.8,79,30.11,10.0,East,12.7,16.1,N/A,,Mostly Cloudy,100,2013-03-17 13:52:00
9:13 AM,14.0,6.8,73,30.11,10.0,ESE,13.8,18.4,N/A,,Scattered Clouds,110,2013-03-17 14:13:00
9:32 AM,15.8,8.6,73,30.11,10.0,ESE,15.0,-,N/A,,Scattered Clouds,120,2013-03-17 14:32:00
9:52 AM,15.8,8.6,73,30.10,10.0,ESE,13.8,-,N/A,,Scattered Clouds,120,2013-03-17 14:52:00
10:12 AM,17.6,10.4,73,30.10,10.0,ESE,15.0,20.7,N/A,,Scattered Clouds,120,2013-03-17 15:12:00
10:32 AM,17.6,10.4,73,30.09,10.0,SE,15.0,19.6,N/A,,Scattered Clouds,130,2013-03-17 15:32:00
11:12 AM,19.4,12.2,74,30.07,10.0,SE,16.1,19.6,N/A,,Scattered Clouds,130,2013-03-17 16:12:00
11:33 AM,21.2,12.2,68,30.06,10.0,SE,16.1,21.9,N/A,,Mostly Cloudy,130,2013-03-17 16:33:00
11:52 AM,21.2,12.2,68,30.05,10.0,SE,13.8,23.0,N/A,,Mostly Cloudy,140,2013-03-17 16:52:00
12:12 PM,23.0,14.0,68,30.03,10.0,ESE,16.1,-,N/A,,Scattered Clouds,120,2013-03-17 17:12:00
12:33 PM,24.8,14.0,64,30.03,10.0,SE,17.3,20.7,N/A,,Mostly Cloudy,130,2013-03-17 17:33:00
12:52 PM,24.8,15.8,69,30.01,10.0,SE,16.1,-,N/A,,Scattered Clouds,140,2013-03-17 17:52:00
1:12 PM,26.6,15.8,64,30.00,10.0,SE,12.7,19.6,N/A,,Scattered Clouds,140,2013-03-17 18:12:00
1:33 PM,26.6,15.8,64,29.97,10.0,SE,18.4,-,N/A,,Mostly Cloudy,130,2013-03-17 18:33:00
1:52 PM,28.4,17.6,64,29.94,10.0,ESE,19.6,26.5,N/A,,Scattered Clouds,120,2013-03-17 18:52:00
2:12 PM,28.4,19.4,69,29.94,10.0,SE,16.1,24.2,N/A,,Clear,140,2013-03-17 19:12:00
2:33 PM,28.4,19.4,69,29.94,10.0,SE,16.1,23.0,N/A,,Clear,130,2013-03-17 19:33:00
2:52 PM,28.4,19.4,69,29.93,10.0,SE,12.7,21.9,N/A,,Scattered Clouds,140,2013-03-17 19:52:00
3:12 PM,30.2,21.2,69,29.92,10.0,SE,15.0,20.7,N/A,,Mostly Cloudy,130,2013-03-17 20:12:00
3:33 PM,30.2,21.2,69,29.91,10.0,SE,19.6,23.0,N/A,,Mostly Cloudy,130,2013-03-17 20:33:00
3:52 PM,30.2,21.2,69,29.90,10.0,SE,16.1,21.9,N/A,,Overcast,130,2013-03-17 20:52:00
4:12 PM,28.4,21.2,74,29.89,10.0,SE,17.3,20.7,N/A,,Overcast,130,2013-03-17 21:12:00
4:33 PM,28.4,21.2,74,29.88,10.0,SE,16.1,-,N/A,,Mostly Cloudy,140,2013-03-17 21:33:00
4:52 PM,28.4,21.2,74,29.87,10.0,SE,17.3,25.3,N/A,,Overcast,130,2013-03-17 21:52:00
5:12 PM,28.4,23.0,80,29.85,10.0,ESE,19.6,24.2,N/A,,Overcast,120,2013-03-17 22:12:00
5:33 PM,28.4,23.0,80,29.84,10.0,ESE,18.4,26.5,N/A,,Overcast,120,2013-03-17 22:33:00
5:52 PM,28.4,23.0,80,29.82,10.0,SE,19.6,33.4,N/A,,Overcast,130,2013-03-17 22:52:00
6:12 PM,28.4,24.8,86,29.82,10.0,ESE,19.6,29.9,N/A,,Overcast,120,2013-03-17 23:12:00
6:33 PM,28.4,24.8,86,29.81,10.0,ESE,19.6,28.8,N/A,,Overcast,120,2013-03-17 23:33:00
6:52 PM,28.4,24.8,86,29.81,10.0,SE,23.0,-,N/A,,Overcast,130,2013-03-17 23:52:00
7:12 PM,28.4,24.8,86,29.82,10.0,SE,16.1,24.2,N/A,,Overcast,130,2013-03-18 00:12:00
7:33 PM,28.4,24.8,86,29.82,10.0,SE,15.0,24.2,N/A,,Overcast,140,2013-03-18 00:33:00
7:52 PM,28.4,24.8,86,29.82,10.0,SE,17.3,26.5,N/A,,Overcast,140,2013-03-18 00:52:00
8:12 PM,30.2,24.8,80,29.82,10.0,SE,17.3,24.2,N/A,,Overcast,130,2013-03-18 01:12:00
8:33 PM,30.2,24.8,80,29.82,10.0,SE,17.3,20.7,N/A,,Overcast,140,2013-03-18 01:33:00
8:52 PM,30.2,24.8,80,29.81,10.0,SE,15.0,23.0,N/A,,Overcast,140,2013-03-18 01:52:00
9:12 PM,30.2,26.6,86,29.80,10.0,SE,15.0,19.6,N/A,,Overcast,140,2013-03-18 02:12:00
9:52 PM,30.2,26.6,86,29.78,10.0,SE,18.4,25.3,N/A,,Overcast,140,2013-03-18 02:52:00
10:12 PM,30.2,26.6,86,29.78,10.0,SE,17.3,24.2,N/A,,Overcast,140,2013-03-18 03:12:00
10:33 PM,30.2,26.6,86,29.78,10.0,SE,16.1,23.0,N/A,,Overcast,140,2013-03-18 03:33:00
10:52 PM,30.2,26.6,86,29.77,10.0,SE,17.3,26.5,N/A,,Overcast,140,2013-03-18 03:52:00
11:12 PM,30.2,28.4,93,29.73,10.0,SE,21.9,29.9,N/A,,Overcast,140,2013-03-18 04:12:00
11:33 PM,30.2,26.6,86,29.72,10.0,SE,23.0,31.1,N/A,,Overcast,140,2013-03-18 04:33:00
11:52 PM,30.2,26.6,86,29.70,10.0,SE,25.3,32.2,N/A,,Overcast,140,2013-03-18 04:52:00